Deering, AK

11:19 PM AKST on February 24, 2017 (GMT -0900)
Deering (New)

Weather History for PADE - December, 2012

Change the Weather History Date:

Monday, December 10, 2012

  Actual Average (PAOT) Record (PAOT)
Temperature  
Mean Temperature -10 °F -  
Max Temperature 0 °F 3 °F 33 °F (1961)
Min Temperature -20 °F -9 °F -40 °F (1964)
Degree Days  
Heating Degree Days 75    
Moisture  
Dew Point -12 °F    
Average Humidity 77    
Maximum Humidity 83    
Minimum Humidity 70    
Precipitation  
Precipitation 0.00 in - - ()
Sea Level Pressure  
Sea Level Pressure 29.75 in    
Wind  
Wind Speed 7 mph (WSW)    
Max Wind Speed 13 mph    
Max Gust Speed -    
Visibility 7 miles    
Events Snow    
Averages and records for this station are not official NWS values.
T = Trace of Precipitation, MM = Missing Value Source: NWS Daily Summary

Daily Weather History Graph

Daily Weather History Graph

Search for Another Location

Airport or City:

Trip Planner

Search our weather history database for the weather conditions in past years. The results will help you decide how hot, cold, wet, or windy it might be!

Date:

Astronomy

Dec. 10, 2012 Rise Set
Actual Time 12:10 PM AKST 3:17 PM AKST
Civil Twilight 10:34 AM AKST 4:53 PM AKST
Nautical Twilight 9:18 AM AKST 6:09 PM AKST
Astronomical Twilight 8:13 AM AKST 7:14 PM AKST
Moon 7:57 AM AKST (12/10) 2:20 PM AKST (12/10)
Length of Visible Light 6h 19m
Length of Day
3h 07m
Waning Crescent, 9% of the Moon is Illuminated
Dec 10
Waning Crescent
Dec 12
New
Dec 19
First Quarter
Dec 28
Full
Jan 4
Last Quarter

Hourly Weather History & Observations

Time (AKST) Temp. Windchill Dew Point Humidity Pressure Visibility Wind Dir Wind Speed Gust Speed Precip Events Conditions
12:53 AM -20.9 °F -34.3 °F -26.0 °F 77% 29.65 in 10.0 mi SSW 4.6 mph - 0.00 in   Clear
1:53 AM -20.0 °F -37.1 °F -27.0 °F 70% 29.65 in 10.0 mi SSW 6.9 mph - 0.00 in   Clear
2:53 AM -18.9 °F -35.8 °F -25.1 °F 74% 29.66 in 9.0 mi SSW 6.9 mph - 0.00 in Snow Light Snow
3:53 AM -18.0 °F -36.1 °F -24.0 °F 74% 29.66 in 9.0 mi SSW 8.1 mph - 0.00 in Snow Light Snow
4:53 AM -18.0 °F -33.0 °F -24.0 °F 74% 29.66 in 9.0 mi SSW 5.8 mph - 0.00 in Snow Light Snow
5:53 AM -16.1 °F -33.7 °F -22.0 °F 74% 29.65 in 10.0 mi SSW 8.1 mph - 0.00 in   Clear
6:53 AM -16.1 °F -32.3 °F -22.0 °F 74% 29.67 in 10.0 mi SSW 6.9 mph - N/A   Clear
7:53 AM -13.0 °F -22.7 °F -18.9 °F 75% 29.67 in 10.0 mi SW 3.5 mph - N/A   Clear
8:53 AM -14.1 °F -33.7 °F -20.0 °F 75% 29.67 in 10.0 mi SSW 10.4 mph - 0.00 in   Clear
9:53 AM -14.1 °F -29.9 °F -18.9 °F 79% 29.68 in 10.0 mi SSW 6.9 mph - 0.00 in   Scattered Clouds
10:53 AM -9.0 °F -25.2 °F -15.0 °F 75% 29.70 in 10.0 mi WSW 8.1 mph - N/A   Overcast
11:53 AM -9.0 °F -23.8 °F -15.0 °F 75% 29.72 in 10.0 mi WSW 6.9 mph - N/A   Mostly Cloudy
12:53 PM -6.0 °F -20.1 °F -11.0 °F 79% 29.73 in 10.0 mi West 6.9 mph - N/A   Overcast
1:53 PM -4.0 °F -19.0 °F -9.0 °F 79% 29.73 in 10.0 mi West 8.1 mph - N/A   Overcast
2:53 PM -2.9 °F -16.5 °F -8.0 °F 79% 29.75 in 10.0 mi West 6.9 mph - N/A   Overcast
3:53 PM -2.9 °F -16.5 °F -8.0 °F 79% 29.76 in 2.5 mi West 6.9 mph - 0.00 in Snow Light Snow
4:12 PM -2.2 °F -16.8 °F -7.6 °F 78% 29.76 in 5.0 mi West 8.1 mph - 0.00 in Snow Light Snow
4:44 PM -2.2 °F -20.7 °F -7.6 °F 78% 29.77 in 3.0 mi West 12.7 mph - 0.00 in Snow Light Snow
4:53 PM -2.9 °F -18.8 °F -8.0 °F 79% 29.78 in 4.0 mi West 9.2 mph - 0.00 in Snow Light Snow
5:08 PM -2.2 °F -18.0 °F -7.6 °F 78% 29.78 in 2.5 mi West 9.2 mph - 0.00 in Snow Light Snow
5:16 PM -2.2 °F -18.0 °F -7.6 °F 78% 29.78 in 4.0 mi West 9.2 mph - 0.00 in Snow Light Snow
5:35 PM -2.2 °F -16.8 °F -7.6 °F 78% 29.79 in 2.5 mi West 8.1 mph - 0.00 in Snow Light Snow
5:45 PM -2.2 °F -15.6 °F -7.6 °F 78% 29.79 in 1.5 mi West 6.9 mph - 0.00 in Snow Light Snow
5:53 PM -2.0 °F -16.6 °F -7.1 °F 79% 29.79 in 2.5 mi West 8.1 mph - 0.00 in Snow Light Snow
6:01 PM -2.2 °F -15.6 °F -7.6 °F 78% 29.79 in 3.0 mi West 6.9 mph - 0.00 in Snow Light Snow
6:17 PM -2.2 °F -14.2 °F -7.6 °F 78% 29.79 in 2.0 mi West 5.8 mph - 0.00 in Snow Light Snow
6:38 PM -2.2 °F -12.5 °F -7.6 °F 78% 29.79 in 3.0 mi West 4.6 mph - 0.00 in Snow Light Snow
6:53 PM -2.0 °F -10.1 °F -6.0 °F 83% 29.79 in 4.0 mi West 3.5 mph - 0.00 in Snow Light Snow
7:53 PM -0.9 °F -8.9 °F -7.1 °F 75% 29.80 in 4.0 mi WSW 3.5 mph - 0.00 in Snow Light Snow
8:53 PM -0.9 °F -11.0 °F -6.0 °F 79% 29.82 in 8.0 mi SSW 4.6 mph - 0.00 in Snow Light Snow
9:53 PM -0.9 °F -11.0 °F -6.0 °F 79% 29.83 in 6.0 mi SSW 4.6 mph - 0.00 in Snow Light Snow
10:25 PM -2.2 °F -14.2 °F -7.6 °F 78% 29.83 in 9.0 mi SSW 5.8 mph - 0.00 in Snow Light Snow
10:53 PM -2.9 °F -16.5 °F -8.0 °F 79% 29.84 in 9.0 mi SSW 6.9 mph - 0.00 in Snow Light Snow
11:07 PM -4.0 °F -17.8 °F -9.4 °F 78% 29.84 in 10.0 mi South 6.9 mph - 0.00 in   Overcast
11:53 PM -2.0 °F -15.4 °F -7.1 °F 79% 29.86 in 10.0 mi SSW 6.9 mph - 0.00 in   Overcast